This demonstration page uses our WeatherBlox Daily Observations layout. Learn more.

Left ArrowRight Arrow

34.16533, -84.80231

Hourly Observations for March 25, 2020

Temp ( °F °C ) Dew Point ( °F °C ) Humidity (%) Winds ( mph kmh ) Pressure ( in mb ) Visibility ( mi km ) Precip ( " mm )
12:07 am 00:07 Cloudy with Nearby Thunderstorms 62 16.7 60 15.6 93 93 SSW 6 9 29.81 1010 5 8 0.08 2.03
12:16 am 00:16 Cloudy with Strong Thunderstorms 62 16.7 59 15 90 90 N 3 6 29.79 1009 3 4 0.15 3.81
12:26 am 00:26 Cloudy with Strong Thunderstorms 61 16.1 60 15.6 97 97 Calm 29.79 1009 1 2 0.33 8.38
12:44 am 00:44 Cloudy with Nearby Thunderstorms 62 16.7 60 15.6 93 93 VRB 5 7 29.80 1009 2 2 0.61 15.49
12:50 am 00:50 Cloudy with Nearby Thunderstorms 63 17 61 16 94 94 Calm 29.80 1009 3 4 0.63 16.00
12:53 am 00:53 Cloudy with Nearby Thunderstorms 63 17.2 61 16.1 93 93 Calm 29.78 1008 3 5 0.65 16.51
12:56 am 00:56 Cloudy with Rain 63 17.2 61 16.1 93 93 Calm 29.80 1009 3 4 0.01 0.25
1:01 am 01:01 Cloudy with Heavy Rain 63 17.2 61 16.1 93 93 Calm 29.80 1009 3 4 0.03 0.76
1:10 am 01:10 Cloudy with Light Rain 63 17.2 61 16.1 93 93 Calm 29.80 1009 5 8 0.04 1.02
1:21 am 01:21 Cloudy with Rain 63 17.2 61 16.1 93 93 Calm 29.80 1009 4 6 0.07 1.78
1:44 am 01:44 Mostly Cloudy with Mist and Fog 63 17.2 61 16.1 93 93 Calm 29.80 1009 2 3 0.07 1.78
1:53 am 01:53 Partly Cloudy with Mist and Fog 62 16.7 60 15.6 93 93 Calm 29.78 1009 1 1 0.07 1.78
2:09 am 02:09 Mostly Cloudy with Fog 61 16.1 59 15 93 93 Calm 29.80 1009 1 1 0.00 0.00
2:18 am 02:18 Cloudy with Mist and Fog 62 16.7 60 15.6 93 93 Calm 29.81 1010 2 3 0.01 0.25
2:27 am 02:27 Cloudy 62 16.7 60 15.6 93 93 Calm 29.81 1010 7 11 0.01 0.25
2:53 am 02:53 Cloudy with Mist and Fog 61 16.1 60 15.6 97 97 Calm 29.80 1009 6 10 0.01 0.25
3:07 am 03:07 Cloudy with Mist and Fog 61 16.1 59 15 93 93 Calm 29.82 1010 2 3 0.00 0.00
3:23 am 03:23 Mostly Cloudy with Mist and Fog 61 16.1 59 15 93 93 Calm 29.81 1010 1 1 0.00 0.00
3:53 am 03:53 Mostly Cloudy with Fog 60 15.6 58 14.4 93 93 Calm 29.79 1009 1 1 0.00 0.00
4:02 am 04:02 Mostly Cloudy with Fog 60 15.6 58 14.4 93 93 Calm 29.81 1010 0 0 0.00 0.00
4:16 am 04:16 Mostly Cloudy with Fog 60 15.6 59 15 96 96 Calm 29.81 1010 1 1 0.00 0.00
4:25 am 04:25 Mostly Cloudy with Fog 60 15.6 58 14.4 93 93 Calm 29.81 1010 0 0 0.00 0.00
4:39 am 04:39 Mostly Cloudy with Fog 60 15.6 58 14.4 93 93 Calm 29.81 1010 1 1 0.00 0.00
4:48 am 04:48 Mostly Cloudy with Fog 61 16 59 15 94 94 Calm 29.81 1010 0 0 0.00 0.00
4:53 am 04:53 Mostly Cloudy with Fog 60 15.6 59 15 96 96 Calm 29.79 1009 1 1 0.00 0.00
5:29 am 05:29 Cloudy with Mist and Fog 60 15.6 59 15 96 96 Calm 29.82 1010 1 2 0.00 0.00
5:53 am 05:53 Mostly Cloudy with Fog 59 15 58 14.4 96 96 Calm 29.80 1009 1 1 0.00 0.00
6:13 am 06:13 Mostly Cloudy with Fog 59 15 57 13.9 93 93 Calm 29.83 1010 0 0 0.00 0.00
6:17 am 06:17 Mostly Clear with Fog 59 15 57 13.9 93 93 Calm 29.83 1010 1 1 0.00 0.00
6:34 am 06:34 Mostly Clear with Mist and Fog 60 15.6 58 14.4 93 93 Calm 29.83 1010 2 3 0.00 0.00
6:43 am 06:43 Mostly Clear with Mist and Fog 59 15 57 13.9 93 93 Calm 29.84 1010 6 10 0.00 0.00
6:53 am 06:53 Mostly Clear 59 15 57 13.9 93 93 Calm 29.82 1010 9 14 0.00 0.00
7:53 am 07:53 Sunny 58 14.4 56 13.3 93 93 Calm 29.83 1010 7 11 0.00 0.00
8:53 am 08:53 Sunny 61 16.1 57 13.9 87 87 Calm 29.86 1011 10 16 0.00 0.00
9:53 am 09:53 Partly Cloudy 61 16.1 56 13.3 84 84 VRB 5 7 29.89 1012 10 16 0.00 0.00
10:00 am 10:00 Mostly Cloudy 61 16.1 55 12.8 81 81 Calm 29.91 1013 10 16 0.00 0.00
10:53 am 10:53 Cloudy 62 16.7 53 11.7 73 73 NNW 8 13 29.92 1013 10 16 0.00 0.00
11:53 am 11:53 Cloudy 63 17.2 52 11.1 68 68 N 10 17 29.94 1014 10 16 0.00 0.00
12:53 pm 12:53 Cloudy 63 17.2 51 10.6 65 65 VRB 5 7 29.94 1014 10 16 0.00 0.00
1:40 pm 13:40 Partly Cloudy 67 19.4 52 11.1 59 59 VRB 3 6 29.94 1014 10 16 0.00 0.00
1:53 pm 13:53 Mostly Sunny 67 19.4 51 10.6 57 57 VRB 3 6 29.93 1014 10 16 0.00 0.00
2:53 pm 14:53 Mostly Sunny 67 19.4 51 10.6 57 57 VRB 6 9 29.92 1013 10 16 0.00 0.00
3:53 pm 15:53 Sunny 69 20.6 51 10.6 53 53 VRB 5 7 29.91 1013 10 16 0.00 0.00
4:53 pm 16:53 Sunny 70 21.1 51 10.6 51 51 VRB 3 6 29.90 1013 10 16 0.00 0.00
5:53 pm 17:53 Sunny 70 21.1 49 9.4 47 47 Calm 29.89 1012 10 16 0.00 0.00
6:53 pm 18:53 Sunny 68 20 48 8.9 49 49 Calm 29.90 1013 10 16 0.00 0.00
7:53 pm 19:53 Sunny 62 16.7 51 10.6 67 67 Calm 29.91 1013 10 16 0.00 0.00
8:53 pm 20:53 Clear 56 13.3 51 10.6 84 84 Calm 29.92 1013 10 16 0.00 0.00
9:53 pm 21:53 Clear 54 12.2 50 10 87 87 Calm 29.94 1014 10 16 0.00 0.00
10:53 pm 22:53 Clear 52 11.1 49 9.4 89 89 Calm 29.95 1014 10 16 0.00 0.00
11:53 pm 23:53 Clear 51 10.6 48 8.9 89 89 Calm 29.96 1015 10 16 0.00 0.00

Powered by AerisWeather